Weather History for Cheyenne, WY

Change the Weather History Date:

Thursday, June 20, 2013

  Actual Average Record
Temperature  
Mean Temperature 72 °F 64 °F  
Max Temperature 84 °F 77 °F 96 °F (1874)
Min Temperature 59 °F 50 °F 33 °F (1906)
Degree Days  
Heating Degree Days 0 3  
Month to date heating degree days 58 113  
Since 1 June heating degree days 58 113  
Since 1 July heating degree days 7180 7090  
Cooling Degree Days 7 2  
Month to date cooling degree days 51 22  
Year to date cooling degree days 57 25  
Since 1 June cooling degree days 51 22  
Growing Degree Days 22 (Base 50)    
Moisture  
Dew Point 27 °F    
Average Humidity 44    
Maximum Humidity 78    
Minimum Humidity 9    
Precipitation  
Precipitation 0.00 in 0.07 in 1.54 in (1947)
Month to date precipitation 0.15 1.70  
Year to date precipitation 5.64 7.67  
Snow  
Snow 0.00 in 0.00 in 0.50 in (1992)
Month to date snowfall 0.0 0.0  
Since 1 July snowfall 87.1 60.3  
Snow Depth 0.00 in    
Sea Level Pressure  
Sea Level Pressure 29.69 in    
Wind  
Wind Speed 11 mph (NNE)    
Max Wind Speed 23 mph    
Max Gust Speed 30 mph    
Visibility 10 miles    
Events      
T = Trace of Precipitation, MM = Missing Value Source: NWS Daily Summary

Daily Weather History Graph

Daily Weather History Graph

Search for Another Location

Airport:

Trip Planner

Search our weather history database for the weather conditions in past years. The results will help you decide how hot, cold, wet, or windy it might be!

Date:

Astronomy

Jun. 20, 2013 Rise Set
Actual Time 5:26 AM MDT 8:35 PM MDT
Civil Twilight 4:52 AM MDT 9:09 PM MDT
Nautical Twilight 4:09 AM MDT 9:52 PM MDT
Astronomical Twilight 3:17 AM MDT 10:43 PM MDT
Moon 5:39 PM MDT (6/20) 2:56 AM MDT (6/20)
Length of Visible Light 16h 16m
Length of Day
15h 08m
Waxing Gibbous, 89% of the Moon is Illuminated
Jun 20
Waxing Gibbous
Jun 23
Full
Jun 29
Last Quarter
Jul 8
New
Jul 15
First Quarter

Hourly Weather History & Observations

Time (MDT) Temp. Dew Point Humidity Pressure Visibility Wind Dir Wind Speed Gust Speed Precip Events Conditions
12:53 AM 62.1 °F 55.9 °F 80% 29.59 in 10.0 mi SE 6.9 mph - N/A   Clear
1:53 AM 64.9 °F 52.0 °F 63% 29.59 in 10.0 mi WNW 13.8 mph - N/A   Clear
2:53 AM 60.1 °F 25.0 °F 26% 29.62 in 10.0 mi WNW 12.7 mph - N/A   Clear
3:53 AM 61.0 °F 21.0 °F 21% 29.62 in 10.0 mi NW 17.3 mph 26.5 mph N/A   Clear
4:53 AM 59.0 °F 19.9 °F 22% 29.64 in 10.0 mi NW 12.7 mph 20.7 mph N/A   Clear
5:53 AM 60.1 °F 19.0 °F 20% 29.66 in 10.0 mi NW 17.3 mph 24.2 mph N/A   Clear
6:53 AM 61.0 °F 14.0 °F 16% 29.68 in 10.0 mi NW 16.1 mph 21.9 mph N/A   Clear
7:53 AM 64.9 °F 14.0 °F 14% 29.71 in 10.0 mi NW 15.0 mph 24.2 mph N/A   Clear
8:53 AM 69.1 °F 15.1 °F 13% 29.73 in 10.0 mi NW 11.5 mph 19.6 mph N/A   Clear
9:53 AM 73.0 °F 17.1 °F 12% 29.72 in 10.0 mi North 12.7 mph - N/A   Clear
10:53 AM 75.0 °F 15.1 °F 10% 29.73 in 10.0 mi NNW 4.6 mph - N/A   Clear
11:53 AM 77.0 °F 16.0 °F 10% 29.73 in 10.0 mi NE 9.2 mph - N/A   Clear
12:53 PM 78.1 °F 18.0 °F 10% 29.73 in 10.0 mi Variable 6.9 mph - N/A   Clear
1:53 PM 81.0 °F 19.9 °F 10% 29.70 in 10.0 mi Variable 3.5 mph 16.1 mph N/A   Clear
2:53 PM 82.9 °F 19.9 °F 10% 29.70 in 10.0 mi South 6.9 mph 17.3 mph N/A   Clear
3:53 PM 82.9 °F 19.9 °F 10% 29.69 in 10.0 mi SE 15.0 mph 20.7 mph N/A   Clear
4:53 PM 82.9 °F 19.9 °F 10% 29.68 in 10.0 mi ESE 15.0 mph 23.0 mph N/A   Clear
5:53 PM 81.0 °F 21.0 °F 11% 29.68 in 10.0 mi ESE 15.0 mph 24.2 mph N/A   Clear
6:53 PM 79.0 °F 27.0 °F 15% 29.68 in 10.0 mi ESE 15.0 mph 25.3 mph N/A   Clear
7:53 PM 75.9 °F 33.1 °F 21% 29.69 in 10.0 mi SE 12.7 mph 17.3 mph N/A   Clear
8:53 PM 71.1 °F 42.1 °F 35% 29.71 in 10.0 mi East 11.5 mph - N/A   Clear
9:53 PM 66.9 °F 46.9 °F 49% 29.74 in 10.0 mi NE 5.8 mph - N/A   Clear
10:53 PM 64.0 °F 46.9 °F 54% 29.76 in 10.0 mi NNE 5.8 mph - N/A   Clear
11:53 PM 62.1 °F 48.0 °F 60% 29.76 in 10.0 mi North 3.5 mph - N/A   Clear